Flag for Ukraine Weather past 2 weeks in Kryvyi Rih, Ukraine

Now
46 °F

Clear.


Feels Like: 42 °F
Forecast: 47 / 61 °F
Wind: 8 mph from West

Location: Krivyy Rih / Dnipropetrovs'k

Current Time: Oct 21, 2014 at 7:12:08 AM

Latest Report: Oct 21, 2014 at 6:30 AM


Visibility: 10 mi

Pressure: 29.77 "Hg

Humidity: 87%

Dew point: 43 °F

Location of Kryvyi RihLocation

Historic Weather in Kryvyi Rih — Graph

°F

Kryvyi Rih temperature yesterday

Maximum temperature yesterday: 63 °F (at 4:00 PM)
Minimum temperature yesterday: 30 °F (at 2:00 AM)
Average temperature yesterday: 48 °F

Past Weeks' High & Low Weather Summary

 TemperatureHumidityPressure
High70 °F (Oct 11, 4:00 PM)100% (Oct 15, 6:30 AM)30.54 "Hg (Oct 15, 6:30 AM)
Low27 °F (Oct 19, 4:00 AM)25% (Oct 13, 4:00 PM)29.68 "Hg (Oct 16, 1:00 PM)
Average51 °F67%30.12 "Hg
* Reported Oct 6 6:30 AM — Oct 21 6:00 AM, Kryvyi Rih, Weather by CustomWeather, © 2014

Note: Actual official high and low records may vary slightly from our data, if they occured in-between our weather recording intervals... More about our weather records

Advertising

Kryvyi Rih weather history for previous 24 hours

 ConditionsComfort  
Time TempWeatherWind HumidityBarometerVisibility
6:00 AM
Oct 21
46 °FClear.8 mph87%29.77 "Hg10 mi
5:30 AM48 °FClear.6 mph82%29.77 "Hg10 mi
5:00 AM48 °FClear.6 mph82%29.77 "Hg10 mi
4:30 AM50 °FClear.3 mph76%29.77 "Hg10 mi
4:00 AM50 °FClear.6 mph76%29.77 "Hg10 mi
3:30 AM50 °FClear.6 mph76%29.77 "Hg10 mi
3:00 AM50 °FClear.8 mph76%29.77 "Hg10 mi
2:30 AM52 °FClear.6 mph77%29.77 "Hg10 mi
2:00 AM52 °FClear.6 mph77%29.77 "Hg10 mi
1:30 AM54 °FClear.6 mph67%29.77 "Hg10 mi
1:00 AM54 °FClear.3 mph67%29.80 "Hg10 mi
12:30 AM54 °FClear.8 mph67%29.80 "Hg10 mi
12:00 AM54 °FClear.8 mph67%29.80 "Hg10 mi
11:30 PM
Oct 20
55 °FClear.10 mph63%29.80 "Hg10 mi
11:00 PM55 °FClear.10 mph63%29.80 "Hg10 mi
10:30 PM57 °FClear.10 mph59%29.80 "Hg10 mi
10:00 PM57 °FClear.15 mph59%29.80 "Hg10 mi
9:30 PM57 °FClear.15 mph67%29.80 "Hg10 mi
9:00 PM57 °FClear.17 mph67%29.80 "Hg10 mi
8:30 PM57 °FClear.13 mph67%29.80 "Hg10 mi
8:00 PM57 °FClear.17 mph67%29.80 "Hg10 mi
7:30 PM59 °FClear.17 mph63%29.80 "Hg10 mi
7:00 PM59 °FClear.17 mph63%29.80 "Hg10 mi
6:30 PM59 °FSunny.15 mph59%29.80 "Hg10 mi
6:00 PM59 °FSunny.17 mph59%29.80 "Hg10 mi
5:30 PM61 °FSunny.17 mph55%29.83 "Hg10 mi
5:00 PM61 °FSunny.17 mph55%29.83 "Hg10 mi
4:30 PM63 °FSunny.22 mph49%29.83 "Hg10 mi
4:00 PM63 °FSunny.22 mph49%29.83 "Hg10 mi
3:30 PM61 °FPartly sunny.24 mph55%29.86 "HgN/A
3:00 PM61 °FPartly sunny.22 mph55%29.89 "HgN/A
2:30 PM59 °FPartly sunny.24 mph55%29.89 "HgN/A
2:00 PM59 °FPartly sunny.24 mph55%29.89 "HgN/A
1:30 PM57 °FPassing clouds.26 mph59%29.92 "HgN/A
1:00 PM57 °FPassing clouds.24 mph59%29.92 "HgN/A
12:30 PM54 °FScattered clouds.26 mph67%29.95 "HgN/A
12:00 PM54 °FScattered clouds.26 mph67%29.98 "HgN/A
11:30 AM48 °FBroken clouds.22 mph66%30.01 "HgN/A
11:00 AM48 °FMostly cloudy.17 mph66%30.01 "HgN/A
10:30 AM45 °FMostly cloudy.15 mph71%30.04 "HgN/A
10:00 AM45 °FMostly cloudy.10 mph71%30.04 "HgN/A
9:30 AM39 °FSunny.15 mph81%30.07 "Hg10 mi
9:00 AM39 °FSunny.13 mph81%30.07 "Hg10 mi
8:30 AM36 °FSunny.13 mph75%30.09 "Hg10 mi
8:00 AM36 °FClear.10 mph75%30.09 "Hg10 mi
Weather by CustomWeather, © 2014

See weather overviewHow to use our weather pages